Regional Weather Roundup
Issued by NWS

Home | Current Version | Previous Version | Text Only | Print | Product List | Glossary On
Versions: 1 2 3 4 5 6 7 8 9 10 11 12 13 14 15 16 17 18 19 20 21 22 23 24 25 26 27 28 29 30 31 32 33 34 35 36 37 38 39 40 41 42 43 44 45 46 47 48 49 50
000
ASUS43 KMKX 212221
RWRWI

WISCONSIN REGIONAL WEATHER ROUNDUP
NATIONAL WEATHER SERVICE MILWAUKEE/SULLIVAN WI
400 PM CST TUE FEB 21 2017

NOTE: "FAIR" INDICATES FEW OR NO CLOUDS BELOW 12,000 FEET WITH NO
SIGNIFICANT WEATHER AND/OR OBSTRUCTIONS TO VISIBILITY.

WIZ001-002-006>008-014>016-023>028-212300-
NORTHWEST WISCONSIN

CITY           SKY/WX    TMP DP  RH WIND       PRES   REMARKS
SUPERIOR ARPT  PTSUNNY   53  36  51 SW5       29.69F
ASHLAND        MOSUNNY   54  31  41 S8        29.71F
HAYWARD        CLOUDY    51  33  50 S9        29.73F
SIREN          CLOUDY    53  38  55 S8        29.71F
CUMBERLAND     PTSUNNY   48  37  66 S13       29.74F
RICE LAKE      PTSUNNY   54  37  54 SE6       29.76F
CHETEK         PTSUNNY   53  38  56 SE7       29.75F
LADYSMITH      PTSUNNY   53  37  55 SE7       29.77F
EAU CLAIRE     PTSUNNY   59  37  44 S14       29.75F
MENOMONIE      CLOUDY    59  38  45 SE12      29.75F
NEW RICHMOND   PTSUNNY   58  40  50 S9        29.73F
OSCEOLA        NOT AVBL
$$

WIZ003>005-009-010-017-018-212300-
NORTH CENTRAL WISCONSIN

CITY           SKY/WX    TMP DP  RH WIND       PRES   REMARKS
MANITOWISH WTR PTSUNNY   50  29  44 S9        29.77F
ARBOR VITAE    MOSUNNY   55  29  37 S8          N/A
WOODRUFF       MOSUNNY   55  29  37 S8          N/A
RHINELANDER    SUNNY     54  29  38 SW8       29.81S
EAGLE RIVER    SUNNY     54  26  34 SW8       29.78F
LAND O LAKES   MOSUNNY   54  26  33 SW6       29.79F
PHILLIPS       CLOUDY    53  32  44 S5        29.77F
TOMAHAWK       SUNNY     53  30  40 S5        29.81F
MEDFORD        SUNNY     50  40  70 S8        29.80F
MERRILL        NOT AVBL
$$

WIZ029-030-035-036-043>047-212300-
CENTRAL WISCONSIN

CITY           SKY/WX    TMP DP  RH WIND       PRES   REMARKS
WAUSAU         SUNNY     53  36  52 S8        29.82F
MOSINEE        MOSUNNY   54  37  54 S8        29.85F
MARSHFIELD     SUNNY     56  38  50 S13       29.80F
STEVENS POINT  SUNNY     56  32  39 S8        29.84F
WAUPACA        SUNNY     63  32  30 SW3       29.85F
WAUTOMA        SUNNY     62  35  36 SW9       29.85F
WISC RAPIDS    SUNNY     59  36  42 S12       29.85F
CAMP DOUGLAS   MOSUNNY   63  30  29 SW10      29.84F
$$

WIZ011>013-019>022-031-037>040-048>050-212300-
NORTHEAST WISCONSIN

CITY           SKY/WX    TMP DP  RH WIND       PRES   REMARKS
ANTIGO         SUNNY     50  33  51 SW9       29.83F
SHAWANO        SUNNY     58  37  44 SW6       29.85S
OCONTO         SUNNY     58  37  46 SW9       29.83F
STURGEON BAY   SUNNY     57  38  48 VRB7      29.85F
GREEN BAY      SUNNY     57  45  64 SW7       29.85F
MANITOWOC      SUNNY     59  39  47 SW6       29.88S
APPLETON       MOSUNNY   57  36  44 VRB6      29.85F
CLINTONVILLE   SUNNY     59  36  41 SW7       29.85F
OSHKOSH        SUNNY     59  40  49 S8        29.86F
$$

WIZ032>034-041-042-053>061-212300-
SOUTHWEST WISCONSIN

CITY           SKY/WX    TMP DP  RH WIND       PRES   REMARKS
LA CROSSE      SUNNY     61  38  42 S14       29.82F
SPARTA         SUNNY     62  31  32 S7        29.85F
VIROQUA        SUNNY     57  36  45 S7        29.86F
BOSCOBEL       SUNNY     62  32  32 S7        29.88S
PRAIRIE DU CHI MOSUNNY   59  36  41 S5        29.87F
PLATTEVILLE    MOSUNNY   60  40  48 SW7       29.90S
$$

WIZ056-057-062-063-064-067-068-212300-
SOUTH CENTRAL WISCONSIN

CITY           SKY/WX    TMP DP  RH WIND       PRES   REMARKS
REEDSBURG      SUNNY     61  32  33 SW10      29.87S
BARABOO/DELLS  SUNNY     61  29  29 SW10      29.87S
LONE ROCK      SUNNY     62  32  32 SW7       29.88S
MINERAL POINT  SUNNY     59  36  41 SW6       29.90R
MADISON        MOSUNNY   61  33  35 S7        29.87F
MIDDLETON      SUNNY     65  27  24 SW6       29.88S
WATERTOWN      SUNNY     61  37  41 SW3       29.88F
MONROE         SUNNY     63  32  31 SW9       29.89S
JANESVILLE     MOSUNNY   66  30  26 W7        29.89S
$$

WIZ051-052-058>065-066-070>072-212300-
SOUTHEAST WISCONSIN

CITY           SKY/WX    TMP DP  RH WIND       PRES   REMARKS
MILWAUKEE      MOSUNNY   63  39  41 SE9       29.89S
WAUKESHA       SUNNY     61  32  33 W7        29.90S
MILWAUKEE/TIMM SUNNY     64  21  19 SW8       29.89S
RACINE         SUNNY     58  47  66 SE9       29.91R
KENOSHA        SUNNY     64  39  39 SW7       29.89S
FOND DU LAC    SUNNY     59  42  53 S9        29.87F
SHEBOYGAN      SUNNY     61  33  35 CALM      29.88S
WEST BEND      SUNNY     61  30  31 W6        29.88S
JUNEAU         SUNNY     59  41  50 S5        29.89F
$$

LSZ147-162-212300-
LAKE SUPERIOR

STATION/POSITION TIME  TEMP    WIND        PRES    WAVE
                       AIR SEA DIR/SP/G            HT/PER
                 (UTC) (F)     (DEG/KT/KT) (MB)    (FT/S)
DEVILS ISLAND    2200   41      90/  8/  8 1006.4F
PORT WING        2130   37     360/  3/  7 1006.1F
SAXON HARBOR     2140   58     190/  9/ 14 1006.4F
$$

LMZ867-665-643>646-212300-
LAKE MICHIGAN

STATION/POSITION TIME  TEMP    WIND        PRES    WAVE
                       AIR SEA DIR/SP/G            HT/PER
                 (UTC) (F)     (DEG/KT/KT) (MB)    (FT/S)
CHAMBERS ISLAND  2140   51     190/  6/ 15 1010.2S
NORTHPORT PIER   2140   58     230/  5/ 10 1010.2S
SISTER BAY       2135   58     250/ 12/ 14   N/A
KEWAUNEE LAKESHO 2154   43     180/ 10/ 12 1010.9S
SHEBOYGAN LAKESH 2200   46     170/ 14/ 15 1011.9F
PORT WASHINGTON  2140   50     180/  3/  4 1013.2R
MILWAUKEE LAKESH 2200   43     100/  1/  2   N/A
KENOSHA   LAKESH 2200   42     150/  8/  9 1012.2
$$

TC  - TEMPERATURE IN CELSIUS
VSB - VISIBILITY IN STATUTE MILES
WCI - WIND CHILL INDEX
HX  - HEAT INDEX





USA.gov is the U.S. government's official web portal to all federal, state and local government web resources and services.